Date,TemperatureHighF,TemperatureAvgF,TemperatureLowF,DewpointHighF,DewpointAvgF,DewpointLowF,HumidityHigh,HumidityAvg,HumidityLow,PressureMaxIn,PressureMinIn,WindSpeedMaxMPH,WindSpeedAvgMPH,GustSpeedMaxMPH,PrecipitationSumIn
2013-5-1,87.0,74.6,64.8,39.8,29.3,21.5,31,19,13,30.05,29.85,4,1,12,0.00
2013-5-2,96.6,74.9,56.2,50.5,37.6,27.3,50,27,16,30.13,30.02,1,0,4,0.00
2013-5-3,97.5,70.8,47.3,55.1,43.2,36.3,70,41,19,30.04,29.75,1,0,6,0.00
2013-5-4,94.6,71.6,53.2,52.6,43.5,34.5,80,42,16,29.76,29.50,2,0,6,0.00
2013-5-5,66.3,59.6,53.7,51.3,48.2,46.1,78,66,57,29.79,29.58,2,0,6,0.00
2013-5-6,70.2,59.0,49.9,53.8,49.7,44.9,85,72,50,29.94,29.79,2,0,3,0.00
2013-5-7,74.1,63.3,56.1,56.0,50.8,47.4,81,65,48,30.00,29.93,2,0,9,0.00
2013-5-8,71.6,59.5,51.6,55.8,50.0,45.3,84,72,54,30.10,29.99,2,0,6,0.00
2013-5-9,81.2,61.9,47.8,58.8,50.5,43.5,86,68,44,30.13,30.01,1,0,5,0.00
2013-5-10,86.8,64.6,50.2,62.5,52.5,45.6,85,67,44,30.15,30.03,1,0,4,0.00
2013-5-11,95.1,68.5,48.6,66.5,54.0,44.6,87,63,35,30.12,29.98,2,0,3,0.00
2013-5-12,92.1,68.7,48.0,62.3,52.2,43.5,87,59,27,30.10,29.95,1,0,5,0.00
2013-5-13,92.0,68.4,47.8,64.9,53.5,43.2,86,61,39,30.04,29.88,1,0,3,0.00
2013-5-14,87.9,70.0,50.8,61.2,53.9,46.0,86,59,39,29.93,29.84,1,0,4,0.00
2013-5-15,81.9,63.2,44.7,53.3,47.2,40.5,86,59,32,30.00,29.90,2,0,4,0.00
2013-5-16,75.9,63.2,54.6,55.4,48.9,44.5,71,60,44,29.97,29.88,3,1,14,0.00
2013-5-17,76.3,60.6,45.4,53.8,45.0,40.1,84,59,36,30.03,29.92,2,0,14,0.00
2013-5-18,84.8,63.9,43.0,53.2,46.4,38.4,86,57,29,30.09,29.99,2,0,10,0.00
2013-5-19,88.3,68.7,49.4,51.2,44.8,38.1,77,47,20,30.10,29.92,2,0,6,0.00
2013-5-20,93.1,75.6,57.4,53.0,44.1,38.6,59,35,19,29.97,29.83,3,0,7,0.00
2013-5-21,77.7,63.7,51.5,50.2,44.3,36.2,76,51,32,29.94,29.84,4,1,6,0.00
2013-5-22,74.3,56.8,38.9,41.9,35.3,29.2,72,47,25,30.00,29.84,2,0,6,0.00
2013-5-23,77.9,58.8,43.4,47.6,40.8,36.6,77,54,31,29.96,29.87,2,0,5,0.00
2013-5-24,81.8,62.1,45.0,49.4,43.1,37.9,77,52,29,29.96,29.85,2,0,6,0.00
2013-5-25,79.7,60.9,42.8,52.2,44.7,37.4,83,58,36,29.97,29.89,2,0,6,0.00
2013-5-26,77.0,62.7,48.9,55.1,48.3,43.1,83,61,36,30.06,29.97,3,1,10,0.00
2013-5-27,65.8,58.0,51.2,54.9,49.3,43.1,88,73,64,30.07,29.96,1,0,5,0.05
2013-5-28,79.1,65.7,53.8,58.7,54.5,50.6,90,69,48,29.97,29.86,2,0,6,0.00
2013-5-29,82.2,67.9,56.9,56.1,51.0,46.1,73,56,38,29.91,29.82,2,0,6,0.00
2013-5-30,87.2,66.7,49.3,52.4,46.9,43.1,80,52,27,29.95,29.86,2,0,7,0.00
2013-5-31,95.0,73.2,50.0,56.6,49.4,42.7,77,47,23,29.98,29.84,2,0,7,0.00